Theta_e
282 279 276 275 276 277 277 276 276 276 278 276 275 274 274 275 274 275 276 279 279 276 276 274 275 275 276 276 277 277 277 278 277 278 278 278 279 279 279 279 279 279 281 281 281 282 282 283 283 283 282 283 284 284 284 284 285 285 285 285 286 287 287 287 286 286 285 285 285 284 285 285 286 287 288 288 287 287 286 287 287 287 288 287 286 288
282 279 276 277 277 277 277 276 276 276 277 276 274 274 274 275 274 277 277 277 280 276 275 275 275 276 276 277 277 278 279 277 277 278 279 279 279 280 279 280 280 281 280 281 282 282 281 282 283 283 283 286 283 285 285 284 285 285 286 285 286 287 286 287 286 286 286 285 285 285 285 285 285 286 287 287 288 288 289 288 288 287 287 286 286 288
279 275 277 277 277 277 277 277 276 276 276 275 275 274 273 275 276 276 276 277 279 276 276 275 275 275 276 276 277 277 277 279 278 279 279 279 279 280 281 280 281 280 281 280 281 281 281 281 282 282 283 283 283 284 285 285 285 286 286 286 286 286 286 287 288 288 287 286 287 286 286 285 285 286 287 286 288 288 288 287 288 289 288 287 287 287
277 277 279 278 277 277 278 278 276 276 277 276 276 274 275 275 275 274 275 277 279 277 277 276 275 275 275 275 276 277 277 278 278 280 279 280 280 280 281 281 280 281 280 281 281 281 281 281 282 282 283 284 284 285 285 285 285 286 288 286 286 287 286 286 287 292 289 288 289 288 288 287 286 286 288 288 287 287 286 287 288 288 288 288 288 288
276 278 278 277 277 277 277 277 277 275 276 276 276 274 274 275 276 276 275 276 277 278 276 275 274 273 274 274 276 278 277 278 278 278 279 280 280 280 280 281 281 281 280 281 281 282 282 282 283 283 284 284 283 284 284 284 285 286 286 286 286 286 286 286 289 287 287 288 287 287 286 286 286 285 284 284 284 286 287 288 286 287 287 287 287 287
277 279 279 277 277 277 277 278 276 276 274 274 276 276 277 275 276 275 275 275 273 275 277 276 269 270 274 274 274 275 275 277 277 277 278 279 279 279 280 279 281 281 280 280 282 282 282 282 283 283 283 283 283 284 284 284 285 284 285 285 285 285 286 286 286 287 288 287 285 284 284 284 284 284 285 284 284 285 286 286 287 287 287 287 287 286
279 279 278 277 277 277 276 275 277 277 274 272 276 275 276 276 276 275 274 275 272 271 276 276 272 264 273 274 275 274 273 275 276 276 277 277 278 278 279 279 279 280 281 281 281 281 282 282 281 282 282 282 282 284 284 283 283 284 284 285 285 285 286 287 286 286 288 285 285 284 283 283 283 283 284 285 286 286 286 287 287 287 287 287 287 287
279 279 278 277 277 276 276 275 277 276 274 275 275 276 276 276 275 274 275 274 275 275 278 274 273 269 268 273 274 273 274 274 274 276 277 277 277 278 278 279 279 279 279 279 280 281 280 281 281 282 283 282 283 283 283 283 284 284 284 284 285 286 287 286 285 286 286 285 284 284 283 286 285 283 284 285 285 286 287 286 286 286 286 286 286 286
278 278 278 277 276 276 275 277 278 277 275 277 277 277 276 275 275 275 275 275 274 273 270 273 274 269 265 271 274 273 275 273 273 275 276 277 277 277 278 279 279 279 279 279 280 281 281 281 282 282 282 283 283 283 282 283 284 284 284 284 285 285 285 285 285 287 284 286 286 283 283 283 284 285 286 286 286 285 285 284 285 285 285 285 285 285
279 279 280 278 277 275 276 277 277 277 275 276 278 278 277 276 276 275 274 274 272 267 266 271 273 267 268 271 273 273 273 273 274 275 275 276 277 277 278 279 279 279 280 280 279 280 280 281 281 281 281 282 282 282 283 283 283 283 283 284 285 284 284 285 284 284 284 284 285 283 283 283 283 284 284 284 284 284 284 283 283 283 284 283 283 283
279 282 283 278 278 279 278 277 277 277 279 278 278 278 275 274 275 273 271 270 266 262 266 272 273 271 266 271 273 273 274 273 274 274 274 274 276 277 277 278 279 279 279 279 280 280 281 281 281 280 281 282 282 282 282 282 283 282 283 283 283 283 283 284 284 283 283 283 283 283 283 283 282 283 283 282 282 283 282 282 282 282 282 282 281 282
279 278 279 279 281 280 278 278 278 278 277 277 275 275 274 273 272 271 265 263 264 259 264 270 272 270 264 267 273 273 273 274 275 275 275 274 276 277 277 278 279 278 279 279 279 280 280 281 282 282 282 282 282 282 283 282 282 283 282 282 282 282 283 283 284 283 283 283 283 283 283 283 283 283 282 282 281 281 281 280 280 280 279 279 280 280
278 278 278 279 283 279 277 276 276 277 278 277 275 274 270 264 263 266 260 264 257 264 271 270 271 268 269 272 273 274 274 274 274 276 276 276 276 277 278 279 279 279 278 279 279 279 280 280 281 281 282 282 282 282 282 282 282 282 282 281 281 282 282 282 282 282 283 283 283 283 282 282 284 283 282 282 281 280 280 279 278 277 277 277 277 277
273 276 277 279 279 279 279 275 275 275 277 276 274 268 261 258 254 258 251 255 258 267 270 270 270 271 273 274 273 275 275 275 274 275 276 276 277 278 278 278 278 279 278 278 279 279 279 280 281 281 280 281 281 281 282 282 283 281 282 281 282 282 282 282 283 283 283 283 283 283 283 282 282 282 282 281 280 279 278 277 276 276 276 276 276 276
265 270 276 277 276 278 277 276 277 275 274 274 274 272 268 258 264 261 256 264 263 265 268 268 266 262 269 273 275 275 274 274 274 275 275 276 276 277 277 277 277 278 279 279 279 279 280 281 280 280 281 280 281 281 281 281 281 281 281 281 281 281 282 282 282 283 282 283 283 283 283 282 282 282 281 279 279 277 276 276 276 276 276 275 276 276
273 271 276 278 278 277 277 277 277 275 273 273 273 273 269 268 265 266 257 259 257 259 264 260 266 269 273 276 277 276 274 275 275 274 275 276 276 275 277 278 279 279 279 279 279 280 280 281 280 280 280 281 280 281 281 281 280 281 281 281 281 280 281 281 283 282 282 282 282 282 281 281 282 281 279 277 277 276 276 275 275 275 275 275 276 276
268 273 276 276 278 277 278 278 278 278 270 275 272 266 270 274 265 258 261 258 260 256 259 259 269 273 274 275 275 274 276 276 275 275 275 275 275 275 277 278 278 279 279 279 279 280 280 280 281 281 280 280 281 281 281 281 280 280 280 280 280 281 281 281 282 281 281 281 281 280 280 279 278 277 275 275 274 275 275 275 275 275 275 275 276 276
271 271 275 276 277 278 276 277 278 276 277 273 268 273 275 271 266 265 263 254 252 257 261 263 265 267 269 267 274 276 275 276 275 276 275 275 275 276 278 278 278 279 279 279 279 279 279 280 280 280 280 280 280 280 280 281 280 280 280 279 279 280 280 281 281 281 281 280 280 279 278 277 276 275 274 274 274 275 275 274 275 275 275 274 275 275
273 268 273 276 275 277 277 278 277 278 277 276 276 277 274 262 266 263 258 259 260 257 256 263 264 265 269 271 273 273 273 275 276 275 274 276 277 277 278 278 279 279 279 279 279 280 280 280 280 280 280 281 281 281 280 280 280 280 279 280 280 280 280 280 280 280 280 279 279 278 277 275 274 274 274 274 275 274 274 274 274 274 274 274 274 274
271 268 268 275 277 275 275 273 268 271 276 272 276 274 273 268 264 263 263 262 260 258 259 260 261 266 269 271 272 273 273 274 275 274 274 275 276 277 278 278 279 279 279 279 279 280 280 280 280 280 280 280 281 280 280 280 280 279 279 279 280 281 280 280 279 279 278 278 277 276 275 274 274 274 274 274 274 273 273 273 274 274 273 273 274 273
271 271 266 273 272 274 272 270 271 271 270 272 272 268 267 267 270 270 263 263 264 254 254 254 261 263 270 274 274 274 274 274 274 275 275 276 277 278 278 278 279 279 279 279 279 279 280 280 280 280 280 280 280 279 279 279 279 279 279 279 280 279 279 278 278 278 277 276 275 274 273 273 273 273 273 273 273 273 273 273 274 273 273 273 272 272
266 267 269 266 271 266 271 275 273 273 273 271 271 271 271 267 264 263 262 265 257 261 257 252 264 266 274 276 276 275 275 274 274 275 275 276 278 278 279 279 279 279 279 279 279 279 280 280 280 280 280 280 279 280 279 279 279 279 279 279 279 279 278 277 277 276 275 274 274 273 273 272 272 273 273 272 273 273 273 272 272 272 272 271 271 272
273 263 266 266 268 273 273 275 273 272 270 272 273 274 270 266 263 258 261 261 260 264 261 259 258 266 275 274 274 275 274 274 274 274 275 277 278 278 279 279 279 279 279 279 279 279 279 279 279 279 279 279 279 279 278 278 278 279 279 279 278 278 277 277 276 275 274 273 273 272 272 272 272 272 272 272 272 272 272 272 271 272 271 271 271 271
280 264 265 266 265 269 271 268 267 270 273 270 267 264 269 271 269 267 265 262 261 258 259 254 257 267 274 275 275 275 274 274 275 275 276 277 278 279 279 279 279 279 279 279 279 279 279 279 279 279 279 280 279 279 278 278 278 279 278 278 277 277 276 276 275 274 273 273 272 272 272 272 272 272 272 272 272 271 271 271 271 271 271 270 270 269
270 268 269 263 258 263 264 265 269 269 268 267 269 270 270 268 266 260 258 257 264 260 263 262 260 264 272 276 275 275 274 276 277 277 276 277 278 279 279 279 279 279 279 279 279 279 279 279 280 280 279 279 279 278 278 278 278 278 278 277 277 276 275 274 274 273 272 272 271 271 271 271 272 271 271 271 271 270 270 270 270 270 270 269 269 269
270 268 267 265 265 266 266 266 266 265 265 269 270 271 270 269 266 265 267 256 260 260 262 258 261 271 274 274 276 276 275 276 277 277 278 278 278 278 279 279 279 279 279 279 279 279 279 280 279 279 279 279 278 278 278 278 278 278 277 276 276 275 274 273 273 272 272 271 271 271 271 271 271 271 270 270 270 270 270 270 269 269 269 269 268 268
265 267 267 264 264 267 270 270 269 274 269 268 269 269 270 270 269 268 263 258 263 259 264 267 267 272 275 277 277 277 277 277 278 279 279 279 279 279 279 279 279 279 279 278 278 278 279 279 279 279 279 278 278 277 278 278 277 277 276 275 275 274 273 273 272 272 271 271 271 271 271 271 271 270 270 270 269 269 269 269 268 268 268 268 268 267
264 266 266 267 268 272 271 269 270 273 271 270 271 270 270 270 269 269 266 265 266 263 265 267 269 267 273 275 276 276 278 278 278 279 279 279 279 279 279 278 281 278 278 278 278 279 279 279 279 279 279 278 278 278 278 277 277 276 275 274 273 273 272 272 271 271 271 271 270 270 270 270 270 270 269 269 269 269 268 268 268 267 268 268 267 267
264 266 268 268 266 269 271 271 271 268 270 271 271 270 270 270 269 269 268 270 269 265 269 269 268 269 274 276 278 278 278 278 278 278 279 278 278 278 278 278 277 278 278 278 279 279 279 279 279 279 278 277 277 277 277 277 276 275 274 273 273 272 272 272 271 270 270 270 270 270 270 270 269 269 269 269 268 267 267 267 267 267 267 267 267 267
270 263 266 268 267 270 271 269 269 270 268 268 270 271 272 270 270 271 271 270 270 271 273 273 273 272 275 276 278 279 279 278 279 278 278 277 278 278 278 277 277 278 278 279 279 279 279 279 278 278 278 277 277 277 276 276 275 274 272 272 272 271 271 271 270 270 270 270 270 270 269 269 268 268 268 267 267 266 266 266 266 266 266 266 266 266
271 265 274 265 265 266 266 267 266 268 267 267 271 271 271 271 271 272 271 271 270 270 272 272 271 271 276 278 278 279 279 277 276 277 277 278 278 278 277 278 278 279 279 279 279 279 279 279 278 278 277 277 277 276 276 274 273 272 272 271 271 271 271 270 270 270 269 269 269 269 268 268 268 267 266 266 266 266 266 266 266 265 265 265 265 265
271 267 262 260 267 265 264 264 267 264 265 266 268 269 269 267 264 268 270 272 270 270 270 269 268 271 276 277 277 277 276 277 278 278 278 278 278 278 278 278 278 279 279 279 279 279 279 279 278 277 277 277 276 275 274 273 272 271 271 271 270 270 270 270 270 269 269 269 269 268 267 267 266 266 265 265 265 265 265 265 265 265 265 265 265 265
265 265 265 261 265 261 263 263 267 266 266 265 267 267 270 270 269 269 272 272 274 273 269 266 271 278 277 278 276 278 278 278 278 279 279 278 279 278 278 278 278 278 279 279 279 279 278 278 277 277 276 276 275 274 273 272 271 271 270 270 270 270 270 269 269 268 268 268 268 267 267 266 265 265 265 265 265 265 264 264 264 264 264 264 264 265
263 262 262 263 265 261 262 267 265 268 265 264 275 273 272 270 271 271 271 272 274 275 274 276 277 278 277 278 277 278 278 279 280 280 278 278 277 278 278 278 278 279 279 279 279 278 278 277 277 277 276 275 274 273 272 272 271 270 270 270 270 269 269 268 268 268 267 267 266 266 266 265 264 264 264 264 264 264 263 263 263 263 263 264 264 264
265 260 261 259 264 265 265 268 268 263 264 272 275 274 274 274 273 274 274 274 274 275 276 276 277 278 279 278 278 278 279 279 279 278 278 279 278 278 278 278 279 279 279 279 278 278 278 277 278 277 274 273 273 272 271 271 270 270 269 269 269 269 268 267 267 267 266 266 265 265 265 264 264 263 263 263 263 263 262 262 262 262 263 263 263 263
263 263 264 265 259 261 260 261 264 268 270 273 274 275 275 273 272 273 274 276 276 276 276 275 277 278 278 278 278 279 277 277 278 279 278 279 279 279 279 279 280 279 279 279 278 278 277 278 278 276 274 274 272 271 271 270 269 269 268 269 268 268 267 267 266 266 265 264 264 264 264 263 263 262 262 262 262 262 262 262 262 262 262 262 263 263
270 267 265 265 262 264 260 261 271 271 273 273 274 274 273 274 273 274 270 275 276 275 276 276 277 277 278 278 278 278 276 276 277 281 281 280 280 279 279 280 280 279 278 278 278 278 278 278 276 275 274 271 271 270 269 269 269 268 268 267 267 267 266 266 265 264 264 263 263 263 263 263 262 262 262 262 261 261 261 261 261 261 262 262 262 262
273 268 267 266 265 264 264 265 263 262 261 268 272 275 275 276 275 274 273 274 279 275 277 277 276 278 278 278 278 276 276 277 276 279 279 280 280 279 279 279 279 278 278 277 277 277 277 276 275 274 272 270 270 269 269 269 268 267 266 266 266 265 264 264 263 263 263 262 263 263 263 262 262 261 261 261 261 261 261 261 261 261 262 261 261 261
270 269 267 267 266 263 261 261 258 261 267 272 275 275 275 274 275 273 271 270 276 275 277 277 278 278 277 278 278 276 275 273 275 279 281 279 278 278 279 280 279 278 277 277 278 276 275 275 273 272 271 270 269 268 268 268 267 266 265 265 264 264 263 263 262 262 262 262 262 262 262 261 261 261 261 260 260 260 260 260 260 261 261 261 261 261
265 261 262 262 259 258 256 258 263 262 268 272 272 273 275 274 275 275 269 268 276 277 276 276 277 277 278 277 276 276 274 273 277 281 281 280 279 279 278 279 279 278 277 276 276 275 274 274 272 271 270 269 268 268 267 266 265 265 264 264 263 263 262 262 262 262 262 262 262 261 261 261 261 260 260 260 260 260 260 260 260 261 261 261 261 261
265 265 263 266 258 263 269 260 260 267 273 274 274 275 274 274 275 268 266 275 275 276 276 276 277 278 277 277 276 276 277 280 282 283 281 280 280 281 279 278 277 277 277 275 275 275 273 272 271 270 269 268 267 267 266 265 264 263 263 263 262 262 261 262 262 262 262 261 260 260 260 260 260 260 260 260 260 260 260 260 260 260 260 260 261 261
265 263 264 262 259 262 264 266 266 268 275 275 274 275 275 275 266 265 277 277 276 277 276 277 278 278 277 278 278 278 280 281 280 280 280 280 280 279 279 277 276 275 274 275 274 273 271 271 270 269 268 268 267 266 265 264 263 263 262 261 261 261 262 262 262 261 260 259 259 259 259 259 260 259 259 259 259 259 259 260 260 260 260 260 260 260
268 268 265 264 264 262 262 260 264 264 272 276 276 275 276 272 275 277 276 277 277 280 279 277 277 279 277 278 278 279 279 279 279 280 280 279 279 279 278 277 276 275 273 272 271 271 270 269 269 268 267 267 266 265 264 263 262 261 261 260 261 261 261 262 261 260 259 259 258 258 258 258 258 258 258 258 258 258 258 259 259 259 260 260 260 260
273 269 262 263 267 262 261 263 266 271 275 277 279 275 275 279 280 276 279 281 279 278 278 279 278 279 278 279 279 279 279 279 279 279 279 279 279 278 278 276 276 274 272 271 271 270 268 268 267 267 266 266 265 264 263 262 261 260 259 260 261 261 261 261 260 259 258 257 257 257 257 257 257 257 257 258 258 258 258 258 258 259 259 260 260 260
276 275 272 269 271 272 270 272 277 274 276 279 280 284 281 280 281 280 279 279 279 280 279 279 280 281 279 279 279 278 278 279 279 279 278 280 279 278 278 277 275 273 271 270 269 268 267 266 266 265 265 265 264 263 262 261 260 258 258 260 261 260 260 259 258 256 256 256 256 256 256 257 257 257 257 257 258 257 257 258 258 258 259 259 259 260
275 276 272 276 274 276 279 280 282 279 277 278 279 280 280 281 278 278 279 280 281 281 280 280 281 280 280 279 278 279 279 280 279 279 279 279 278 277 276 273 271 270 269 268 267 267 266 265 265 264 263 263 263 262 261 260 259 257 259 260 260 259 258 257 256 255 255 255 256 256 256 256 256 257 257 257 258 258 258 258 258 258 258 259 260 261
274 275 276 274 273 274 274 278 278 280 281 280 280 281 282 281 281 281 280 280 281 281 281 280 280 280 280 279 279 279 280 280 279 279 279 279 278 277 275 273 270 269 268 268 267 266 266 263 264 263 261 261 262 261 260 258 259 259 259 258 259 258 257 255 255 254 255 255 255 255 256 256 256 257 257 257 258 258 258 259 259 259 259 259 260 261
275 276 275 277 274 274 278 281 280 280 279 280 280 281 281 282 281 281 281 281 281 281 281 281 280 279 278 278 279 279 279 279 278 279 279 279 278 277 274 271 269 268 268 268 267 265 263 262 262 261 259 261 262 261 259 258 258 258 257 258 258 256 255 254 254 254 254 254 255 255 256 256 257 257 256 257 257 258 258 259 259 259 259 260 261 261
275 278 272 272 275 277 279 281 282 282 283 283 282 282 282 283 283 282 280 280 280 280 280 280 279 280 279 280 279 279 278 279 279 279 279 279 277 275 272 270 269 268 268 268 266 265 265 262 260 260 259 260 261 259 258 256 257 257 257 258 257 256 255 254 255 254 253 254 255 255 256 256 256 256 256 257 258 258 259 259 260 260 261 263 264 264
276 276 276 274 273 275 276 280 278 275 280 283 282 280 280 281 281 280 280 279 279 279 280 280 280 279 279 280 279 279 279 280 280 278 278 278 277 274 270 269 268 268 268 268 266 264 262 260 259 259 259 260 260 258 257 256 257 257 257 257 256 256 255 254 254 253 254 254 254 255 255 256 256 257 257 257 257 258 258 262 263 264 263 263 265 266
278 279 278 276 274 276 281 282 281 283 283 284 284 283 281 279 278 279 280 281 282 281 281 280 281 281 279 279 279 279 279 280 280 278 276 276 275 272 270 269 268 268 268 267 265 263 261 261 259 259 257 259 259 257 256 256 256 256 256 257 256 255 254 254 253 253 254 254 254 255 256 256 256 256 257 257 257 257 258 259 261 264 266 267 265 265
Wind_Speed
2 15 8 3 6 8 7 3 5 3 1 4 4 4 3 1 1 1 0 3 1 2 7 3 3 6 8 7 6 5 4 7 7 6 5 5 6 6 6 7 7 8 9 5 5 5 6 7 5 5 4 5 7 6 4 6 7 6 6 6 9 8 7 6 6 6 5 5 7 4 6 6 6 7 6 6 6 4 5 5 5 5 6 6 6 6
4 16 9 4 5 6 7 5 1 3 1 3 4 3 3 3 2 0 1 6 7 4 4 5 4 9 6 6 6 5 7 6 6 6 6 7 5 5 6 8 7 8 6 6 6 6 5 5 5 5 4 4 6 9 8 8 8 8 8 6 7 7 6 7 5 5 5 4 4 4 6 5 5 6 6 6 8 9 8 8 6 5 5 5 5 6
15 9 7 5 4 4 3 2 2 3 4 3 3 1 2 5 2 3 1 3 5 5 4 3 7 6 5 4 5 5 3 1 3 2 2 4 6 6 6 5 7 7 8 6 5 5 5 6 5 4 4 4 2 6 7 7 7 7 7 6 5 6 5 6 6 5 5 4 5 2 5 4 5 5 5 4 6 6 7 8 8 8 7 7 7 7
10 7 7 4 1 1 5 6 4 4 5 6 6 5 2 2 4 0 1 5 7 3 3 1 6 3 4 3 4 3 3 2 3 3 2 1 4 6 6 5 6 7 7 8 5 6 6 4 4 4 5 5 6 6 6 6 6 6 6 6 6 7 6 6 7 5 5 5 6 4 5 6 4 6 6 5 6 7 6 7 7 7 7 7 8 8
7 3 2 1 3 3 4 5 9 6 4 2 3 2 2 1 1 2 3 4 3 2 3 2 1 1 4 4 5 5 4 1 3 3 2 3 3 2 3 4 3 4 4 5 7 7 6 7 6 5 5 5 4 5 5 5 5 4 6 7 6 6 6 6 7 7 6 6 6 6 7 4 4 3 4 4 5 5 5 6 5 7 6 6 7 7
7 1 0 2 4 6 5 10 9 3 1 2 1 1 0 2 1 3 3 2 2 1 3 1 1 1 3 1 2 4 6 7 4 5 5 6 6 6 6 5 6 5 3 2 4 5 5 4 6 6 6 5 5 5 5 4 5 4 6 6 6 6 6 6 6 5 5 5 4 6 7 9 9 10 10 11 11 10 10 10 8 8 8 8 7 6
3 1 4 2 4 5 6 3 1 1 0 2 3 1 2 0 1 2 2 2 1 3 2 1 2 3 0 1 1 2 3 4 5 4 5 5 5 5 5 5 5 6 8 7 4 5 5 5 5 5 5 4 5 6 4 5 5 5 5 5 5 5 6 5 5 6 4 6 5 5 4 4 5 6 5 5 7 8 8 7 9 9 8 9 10 9
3 5 6 4 5 6 4 6 0 1 1 1 1 0 3 0 3 3 3 2 2 1 1 4 2 1 2 2 2 2 1 3 4 5 5 5 5 5 5 5 5 6 5 4 5 5 4 4 3 4 6 5 6 5 5 5 5 5 6 6 6 5 5 4 5 6 5 4 4 5 5 5 6 6 8 8 7 6 7 8 8 8 7 7 7 7
3 5 6 8 6 5 5 1 5 1 1 1 1 1 0 3 2 3 4 5 1 2 0 7 4 2 2 3 1 1 1 2 3 4 4 5 6 5 6 6 5 5 5 4 5 6 6 6 6 4 6 7 7 5 4 5 5 5 5 6 5 6 5 6 6 5 5 4 4 4 4 5 5 6 7 7 6 7 7 7 7 7 7 6 6 6
1 1 1 2 4 6 4 4 2 3 5 1 1 4 3 2 2 1 3 4 1 3 1 4 4 1 6 2 1 1 0 3 2 3 4 4 5 5 6 7 7 6 6 5 4 5 7 6 6 5 5 7 6 5 5 5 4 5 5 6 7 7 6 6 6 6 6 6 5 6 6 6 8 7 7 5 8 7 6 8 8 7 7 7 7 7
0 2 4 4 3 2 4 4 2 3 2 1 3 1 1 4 3 2 5 3 3 2 1 1 3 3 3 3 5 4 3 3 2 3 3 4 5 5 4 4 5 5 6 6 7 8 7 6 6 4 6 7 7 5 4 5 5 4 4 5 6 5 5 5 6 5 5 5 5 5 5 6 8 9 8 9 9 8 8 9 9 8 9 8 8 7
3 1 1 1 1 3 1 3 0 1 3 1 1 1 2 1 5 2 5 3 2 2 2 1 1 1 1 4 3 5 2 2 3 2 3 4 5 5 5 6 6 5 5 6 6 7 7 9 10 7 8 7 8 7 7 6 5 5 4 4 5 6 5 5 5 4 5 5 5 4 5 6 7 7 8 9 10 10 10 9 10 9 9 9 8 7
4 5 3 5 2 9 4 1 2 2 6 5 3 7 4 3 6 2 8 3 0 1 2 1 3 2 3 6 1 2 4 4 4 5 4 3 5 6 6 7 6 6 5 6 6 6 7 7 8 8 9 8 8 8 7 7 5 4 4 3 4 6 5 4 4 4 5 5 5 5 5 5 7 8 8 8 9 9 9 9 10 10 10 9 9 8
2 3 5 5 3 4 5 7 8 6 10 12 9 3 4 3 4 1 3 3 3 4 1 2 1 2 3 4 3 4 5 5 3 5 5 5 5 6 6 6 7 7 6 6 6 6 7 7 7 7 6 6 6 7 8 7 5 4 5 5 4 6 5 4 5 5 6 7 7 6 7 8 7 8 8 8 9 9 8 8 10 9 9 10 10 10
2 3 5 5 3 4 4 4 0 1 2 2 1 1 2 4 1 2 1 1 2 6 6 4 1 3 3 2 2 7 3 3 3 4 5 6 7 6 6 6 6 5 6 5 6 7 7 8 7 7 7 6 6 7 7 6 4 4 5 5 6 6 7 6 7 6 7 8 8 7 7 8 7 8 8 8 8 9 10 9 9 9 8 9 9 9
0 2 2 1 2 2 3 1 1 2 1 1 2 3 5 1 1 0 2 1 1 3 7 2 2 2 2 1 2 1 3 4 2 3 3 5 4 3 5 5 6 7 7 7 6 7 8 8 6 6 6 6 6 6 6 5 4 5 5 5 5 4 5 5 5 6 6 7 7 7 8 8 7 8 8 8 8 9 8 9 9 10 9 8 9 8
2 1 2 6 2 4 2 1 2 0 2 3 2 3 1 2 4 4 1 1 1 2 3 1 7 3 7 1 1 2 2 5 4 4 4 5 5 5 5 6 6 7 7 7 7 7 8 8 8 6 6 6 6 6 6 5 4 4 4 4 5 6 5 6 5 6 6 6 6 7 7 7 8 9 9 9 10 10 9 9 9 9 9 9 8 8
0 5 2 2 1 2 1 0 0 2 0 1 3 1 2 3 4 2 1 3 4 2 3 3 3 7 5 2 2 1 4 7 6 7 5 6 5 5 7 7 7 8 8 8 8 7 7 7 6 6 6 5 6 6 5 5 5 4 3 3 4 5 6 6 6 6 6 7 6 7 7 7 8 9 9 9 10 9 9 9 9 9 9 8 8 8
2 2 1 0 2 4 4 0 2 1 1 5 3 3 1 2 2 3 3 4 4 3 4 7 2 6 5 5 2 2 3 6 7 5 4 6 6 7 7 9 9 8 7 7 7 7 8 7 7 7 7 7 6 5 4 5 4 4 4 4 4 5 5 5 5 4 5 5 6 6 8 9 9 8 8 8 9 9 9 10 10 9 9 9 9 11
1 1 2 0 0 3 3 3 1 4 3 3 2 3 2 3 2 2 0 2 4 3 6 6 5 4 4 4 3 3 5 5 6 4 5 5 6 7 7 8 8 8 8 8 7 7 8 8 7 7 7 8 8 7 6 6 4 4 4 4 5 5 5 6 6 5 7 7 7 8 8 8 8 8 9 8 9 9 9 9 9 10 10 10 10 9
0 0 2 1 2 1 0 3 1 1 2 4 5 3 2 2 2 4 1 1 1 3 2 1 8 6 6 5 4 5 4 5 5 6 5 5 7 8 8 9 8 8 8 8 7 7 8 8 8 8 7 6 5 4 4 3 4 4 4 5 5 7 7 6 6 6 7 8 9 9 10 10 10 10 8 9 9 9 9 9 9 10 9 10 10 10
1 1 1 4 4 1 1 1 1 0 0 1 1 2 4 1 2 1 5 3 2 1 3 2 9 7 9 2 5 5 4 4 5 5 5 6 8 9 10 9 9 8 9 8 8 7 7 7 8 8 7 5 4 5 5 5 4 4 5 5 5 5 5 6 7 7 8 8 8 9 10 11 9 9 8 9 9 9 10 10 10 10 10 10 10 8
1 2 2 5 1 0 1 1 2 1 1 0 0 0 3 3 5 3 0 2 1 1 3 2 0 10 6 3 3 5 4 4 4 3 5 7 9 10 10 10 9 8 8 9 8 8 7 7 7 7 7 6 5 5 4 4 4 5 5 5 5 5 7 5 7 7 8 8 9 10 10 9 9 9 9 10 9 10 11 10 10 10 10 10 9 9
3 2 3 4 3 3 1 1 0 5 1 1 1 1 1 1 3 6 3 2 2 2 1 2 2 10 6 2 4 4 4 4 5 4 7 7 8 10 10 10 9 8 8 8 7 7 6 6 6 5 5 5 6 5 4 4 4 5 5 5 5 6 7 7 7 8 8 9 10 10 10 9 9 9 9 10 10 11 11 10 10 9 9 9 9 9
1 1 2 3 4 3 1 2 1 1 1 1 1 1 2 4 5 3 5 1 1 6 7 7 5 6 2 1 2 2 3 4 6 6 4 7 8 9 10 9 7 7 7 8 9 8 8 7 7 7 6 5 5 4 4 4 5 5 6 5 6 6 6 7 7 8 9 9 11 10 10 10 9 9 10 11 10 11 11 11 10 9 11 10 10 11
1 1 1 1 2 4 6 7 6 4 2 2 0 1 2 6 7 1 1 2 1 2 4 2 7 10 5 4 5 5 4 6 7 6 5 5 7 9 8 8 8 7 9 9 9 9 9 8 7 7 5 5 4 4 4 4 5 6 6 6 5 7 7 7 7 7 9 9 10 10 11 10 9 10 11 11 10 11 11 10 11 11 10 10 11 11
1 0 1 3 3 4 6 4 1 1 1 1 1 3 4 1 1 3 5 4 5 3 6 10 7 12 18 14 9 9 8 10 11 10 11 10 10 10 9 10 9 9 9 9 8 8 7 7 8 6 5 4 4 3 4 4 5 6 6 7 7 6 7 8 8 9 9 10 9 10 10 10 10 11 11 10 10 10 10 10 11 11 11 10 11 11
2 1 2 2 5 7 3 6 2 2 5 5 4 4 4 7 7 8 7 6 6 5 8 6 5 3 14 11 7 8 9 9 9 10 11 10 10 11 11 9 10 9 9 8 8 8 8 8 7 6 5 5 4 4 5 5 5 6 6 8 7 7 8 7 8 9 9 9 9 9 9 9 10 11 10 9 10 10 10 10 11 11 11 11 11 11
2 1 0 1 4 7 8 9 4 3 5 6 5 5 5 8 8 9 8 6 8 5 12 2 3 4 14 13 14 13 12 9 9 11 9 8 9 10 9 9 9 10 9 8 9 8 7 7 6 6 6 4 4 5 6 6 6 6 6 6 7 8 8 8 9 10 9 9 9 9 8 10 10 9 10 11 11 11 11 11 11 11 11 11 11 10
2 1 1 1 4 7 8 7 4 5 2 2 7 8 8 8 12 13 11 6 11 13 14 14 13 17 19 18 18 16 10 9 10 8 7 8 10 9 8 8 9 10 9 9 9 8 7 6 6 5 5 4 4 5 6 6 6 7 8 8 8 9 8 8 9 9 10 9 9 8 10 10 10 10 11 11 12 11 11 11 11 11 11 11 11 10
1 1 3 1 2 5 3 3 1 1 1 6 9 8 8 8 8 10 6 5 5 11 17 18 16 18 20 13 12 12 9 5 6 8 9 9 8 7 7 8 10 10 10 9 8 8 7 6 5 5 4 4 4 5 5 6 6 6 7 8 9 9 8 8 9 9 9 10 8 9 11 10 10 11 12 11 11 11 12 12 11 11 12 11 11 12
1 2 2 2 4 6 3 4 8 3 6 9 13 7 7 6 7 5 8 7 7 13 5 1 6 12 14 4 5 5 5 6 9 9 8 7 5 5 9 11 11 11 10 9 9 7 7 6 6 4 4 4 4 5 5 6 7 7 8 9 9 9 8 8 9 9 10 9 10 10 10 10 11 11 12 12 12 12 12 12 12 12 11 12 12 11
0 1 1 3 4 4 3 5 11 11 7 2 3 4 11 6 4 1 5 3 11 3 1 5 11 8 4 0 4 7 8 11 9 9 6 6 7 9 10 11 10 10 9 9 8 7 6 5 4 3 3 3 4 5 5 5 7 8 8 9 9 8 8 9 9 9 9 10 10 10 10 11 12 12 12 12 12 12 11 12 13 12 12 12 12 11
1 2 1 1 0 5 8 13 7 5 4 1 2 4 8 6 11 8 7 11 12 12 9 6 10 8 8 9 8 11 10 12 10 7 4 6 8 9 9 9 9 9 8 7 6 5 5 3 2 2 2 3 3 3 3 4 6 7 7 8 8 8 8 9 10 9 9 9 10 10 10 11 12 12 12 12 12 12 12 12 12 13 12 11 11 11
3 3 2 1 1 5 7 8 5 1 4 2 1 4 2 1 7 9 10 7 7 12 15 16 18 16 13 8 8 10 10 11 11 8 10 8 6 7 9 9 9 8 8 6 6 5 4 2 3 2 3 3 4 4 5 6 6 7 8 8 9 8 10 10 9 9 9 10 10 10 10 11 12 12 12 12 12 12 12 11 11 12 11 11 11 12
4 4 4 0 1 1 3 5 3 5 3 5 5 1 4 1 2 0 8 10 13 14 16 15 18 15 11 11 10 8 5 7 10 8 5 8 6 6 6 7 8 7 6 5 4 5 2 1 3 3 3 3 4 4 4 6 7 8 9 8 8 9 9 9 9 9 10 10 10 11 11 11 12 12 12 12 12 12 12 12 12 12 12 12 11 10
6 4 2 0 0 1 2 2 9 9 12 4 1 0 3 2 3 2 4 9 5 6 10 10 12 11 10 9 9 5 4 4 6 13 1 4 5 4 4 7 6 6 5 4 3 2 1 1 1 2 2 3 4 4 6 6 7 8 8 8 8 9 9 9 9 10 10 10 10 11 11 11 12 13 12 12 12 12 12 13 13 12 9 12 12 12
1 1 2 2 0 3 0 6 6 5 2 4 3 2 1 0 2 1 2 11 5 4 7 8 7 10 9 7 7 2 1 6 11 9 5 5 4 4 5 5 4 3 3 2 1 1 2 1 2 2 2 3 3 4 6 6 7 8 8 8 8 9 9 8 9 9 10 10 11 10 11 11 11 12 13 12 12 13 13 12 11 11 10 11 13 13
4 6 5 3 2 2 2 1 2 2 7 4 1 1 0 2 4 1 2 7 6 3 8 9 9 8 7 7 8 3 5 6 10 9 7 4 4 3 5 8 5 3 2 1 2 3 1 1 2 2 2 3 5 6 6 7 8 7 7 8 8 8 8 8 9 10 10 11 10 11 10 10 11 11 12 12 12 11 12 12 12 11 11 10 10 11
6 4 2 2 1 2 3 2 5 5 7 1 4 2 2 3 1 2 7 5 2 4 5 5 7 7 7 6 2 1 3 8 11 9 3 4 4 5 3 6 5 4 0 1 2 3 2 2 3 4 5 6 6 7 6 7 7 7 8 8 8 7 8 9 9 10 10 10 10 10 10 9 11 11 11 12 13 11 11 11 11 11 11 11 9 10
1 1 2 6 3 4 6 3 4 9 7 4 5 4 2 2 2 2 4 6 3 5 5 7 6 7 5 5 3 6 6 9 11 10 8 8 8 10 4 1 3 2 2 2 2 2 2 2 3 4 4 4 5 6 6 6 6 6 7 8 7 8 9 9 9 10 10 10 10 10 10 10 9 11 12 11 11 11 11 10 10 11 11 11 10 10
0 2 0 4 3 4 5 5 7 8 9 5 1 4 2 1 0 4 8 2 4 3 4 7 6 7 5 7 6 7 10 8 8 8 9 9 7 8 5 2 0 1 2 2 3 2 2 1 3 3 3 4 6 5 5 6 6 6 7 8 8 9 9 9 9 10 10 11 11 10 10 10 10 9 9 10 10 11 10 10 10 9 10 9 9 10
6 5 5 4 3 3 3 1 4 2 1 5 9 3 0 3 8 6 1 2 5 3 3 4 6 7 4 7 7 9 10 10 8 9 9 8 7 7 5 3 3 3 3 2 1 2 2 2 3 3 4 4 5 5 5 6 6 6 7 7 8 9 9 9 9 10 11 11 11 10 10 9 9 10 8 10 10 11 12 11 10 10 9 9 10 11
5 1 1 4 7 5 5 4 5 4 4 9 11 5 7 13 4 4 0 8 2 3 4 4 5 6 5 6 8 8 9 8 9 7 7 7 6 3 1 2 1 2 3 3 2 1 2 2 2 2 3 3 4 4 5 6 7 7 8 8 8 9 9 10 10 11 10 10 9 10 9 9 9 8 8 9 10 10 10 11 11 10 8 8 8 9
10 6 6 1 5 6 9 10 9 4 5 12 11 10 5 8 5 5 3 5 6 7 3 4 8 7 5 6 6 6 9 9 9 6 5 7 7 5 4 3 3 3 3 2 2 2 2 3 3 3 4 4 4 4 5 5 6 6 7 8 9 9 10 11 10 9 9 10 10 10 9 8 8 8 7 8 9 10 11 11 10 10 10 9 9 9
2 1 1 1 6 6 11 15 14 7 6 8 10 9 10 7 4 4 5 7 8 9 5 7 8 8 7 4 4 7 7 8 8 7 6 7 5 3 1 1 2 3 3 3 2 2 1 1 2 4 4 4 3 4 4 5 5 5 8 9 9 9 9 9 10 10 10 10 9 10 11 11 9 7 7 8 7 8 8 9 9 9 9 9 9 9
4 3 2 3 2 3 9 1 4 10 7 6 11 13 12 10 12 8 6 9 11 10 9 7 9 7 7 5 6 9 11 8 7 8 6 6 5 3 3 4 4 4 4 3 1 0 1 2 4 5 3 5 2 3 4 4 4 6 7 7 8 8 8 8 8 9 8 10 10 9 9 10 10 10 9 8 7 6 7 7 7 8 8 9 9 10
4 3 3 8 4 5 13 10 8 6 5 6 7 9 11 11 9 9 10 9 10 9 7 9 5 6 4 6 8 8 11 7 5 8 7 5 4 3 3 5 5 3 2 3 3 2 1 3 2 3 2 4 3 4 4 4 4 5 6 6 6 7 7 7 7 8 9 10 9 8 9 10 11 11 9 9 9 10 10 8 8 8 8 9 9 8
3 5 6 3 5 9 11 19 21 17 16 16 11 11 12 11 10 8 5 7 7 9 11 8 5 7 5 9 6 6 8 8 6 7 7 5 3 3 4 5 5 5 5 3 2 2 2 1 1 1 2 3 3 3 3 3 4 4 6 6 6 7 8 8 8 8 8 8 8 8 8 8 8 9 9 9 9 7 7 9 10 10 9 6 6 8
5 9 3 1 6 10 12 14 3 2 8 7 5 7 7 8 7 8 6 6 7 8 9 9 7 6 8 8 7 7 8 8 7 4 5 5 4 4 4 4 5 6 4 3 3 3 2 1 1 1 2 2 2 3 3 4 4 4 5 5 5 7 8 9 9 8 8 8 8 9 9 9 9 9 9 9 10 11 10 7 12 11 9 9 13 19
12 12 8 8 6 10 13 14 6 7 10 11 10 5 4 3 4 5 7 8 9 8 7 6 9 8 5 7 7 7 8 7 8 3 4 4 4 4 6 7 7 5 4 4 3 2 1 1 0 0 1 2 2 3 3 4 4 4 5 5 6 6 7 7 8 7 7 8 8 9 9 9 9 9 9 9 10 9 11 13 9 8 12 14 15 18
Wind_Direction
298 65 41 31 301 303 292 295 247 241 145 109 90 98 61 47 299 286 276 322 352 85 23 11 355 30 17 360 337 331 352 22 10 359 352 349 344 332 323 309 297 285 271 311 296 293 287 286 288 295 310 313 311 298 321 326 322 325 319 322 309 308 320 325 324 325 327 323 324 330 321 313 308 312 315 309 305 294 279 286 288 285 282 283 285 285
49 63 15 340 269 266 276 305 186 78 79 126 117 100 59 61 344 232 290 330 352 106 350 358 28 36 15 1 355 353 38 7 352 352 3 348 341 335 329 323 314 294 303 322 322 312 311 312 315 323 320 341 339 316 331 322 313 305 311 308 300 310 318 314 309 299 302 277 267 263 275 275 289 304 313 319 323 324 323 314 300 288 283 283 282 288
50 49 336 316 283 255 289 18 77 111 91 40 90 136 74 5 274 285 225 331 358 79 16 359 63 27 10 358 2 24 5 359 318 328 311 328 354 353 347 340 332 338 328 323 301 306 326 324 323 328 319 322 301 291 299 302 310 314 315 312 310 308 311 307 307 310 299 295 299 260 288 293 294 281 273 274 283 299 299 302 307 310 310 306 305 302
58 13 325 332 318 160 21 35 42 47 60 59 27 50 72 274 44 30 301 358 353 75 159 86 76 40 347 341 359 5 13 296 315 299 317 346 7 357 355 334 335 349 348 346 327 310 311 306 315 332 330 321 320 315 316 318 319 316 315 316 323 318 318 313 310 312 313 303 295 294 275 287 256 272 295 299 293 294 294 296 297 299 297 302 301 302
115 274 287 41 41 100 66 27 42 33 40 356 92 121 137 64 28 187 259 338 306 29 90 95 43 350 14 13 353 331 337 335 346 326 340 354 13 321 304 353 350 336 339 346 345 341 341 341 333 316 301 313 316 308 304 307 310 312 306 306 309 307 307 306 310 323 324 325 334 328 321 304 300 282 278 285 291 284 290 297 311 306 304 300 301 300
68 328 241 18 36 43 50 35 21 6 26 337 257 169 134 121 313 283 303 7 44 358 8 117 44 314 304 343 297 289 343 6 327 18 353 336 337 355 4 339 341 351 317 298 321 317 311 307 315 330 327 332 321 313 304 303 297 302 304 310 315 314 311 314 318 327 328 330 330 337 346 345 345 342 344 341 334 331 331 326 317 315 320 317 313 308
104 353 54 56 60 43 48 102 303 66 113 72 331 129 74 231 222 207 279 134 55 100 328 358 102 269 323 62 314 306 333 330 326 359 327 320 324 340 337 334 335 338 341 342 335 339 346 332 335 319 319 310 307 295 308 312 310 310 303 306 308 307 312 324 326 330 345 343 348 344 332 315 313 311 291 295 308 314 312 315 316 315 318 317 315 316
22 2 20 42 47 52 33 23 343 87 106 23 165 148 321 151 165 197 118 104 145 358 145 40 91 176 300 255 238 304 321 325 326 326 326 330 331 328 319 319 316 315 320 312 307 308 303 293 275 283 297 301 285 291 306 309 314 318 315 317 319 323 325 326 331 337 352 351 341 342 340 330 325 316 303 307 304 299 301 306 304 307 304 302 303 307
80 348 13 18 32 42 25 262 285 133 199 285 301 258 169 177 175 140 101 93 129 105 21 358 3 66 265 261 319 7 259 326 301 302 305 316 323 318 317 313 311 304 290 284 298 305 300 297 300 287 291 295 303 301 306 308 308 313 323 324 326 335 342 335 340 341 341 347 340 330 321 322 305 300 302 302 297 300 301 301 304 301 301 303 307 307
347 99 311 136 60 357 269 279 252 188 6 263 107 83 59 66 70 102 100 98 352 64 320 352 347 76 286 274 318 333 241 266 256 278 288 286 292 297 302 310 314 317 319 312 283 280 289 285 283 279 281 291 286 295 303 305 320 331 340 334 337 337 338 330 336 344 340 344 342 340 329 322 316 313 307 304 308 309 311 309 310 311 313 315 313 310
228 307 181 82 34 269 273 276 225 203 241 6 87 79 9 33 17 22 54 81 58 31 268 292 348 113 300 253 203 160 229 192 240 307 289 296 309 306 291 290 301 307 308 306 311 305 296 293 280 287 295 289 303 311 316 321 331 324 334 326 330 323 321 330 330 336 327 325 328 325 323 319 316 315 314 320 319 319 321 319 318 320 319 316 311 313
18 11 48 279 199 293 137 319 98 277 273 145 86 111 53 305 6 29 346 31 81 289 254 269 301 134 164 293 283 236 280 209 165 217 265 286 287 285 293 304 306 308 306 305 309 308 313 321 320 326 318 317 310 320 333 331 328 330 332 328 324 322 325 318 315 317 313 317 316 320 317 312 306 314 322 322 320 322 319 319 319 318 315 311 310 311
42 27 289 322 217 26 346 41 301 13 356 36 113 41 80 287 27 326 9 5 12 193 185 212 51 45 248 219 228 240 234 260 217 211 217 245 275 289 297 301 302 303 313 313 307 308 311 306 304 309 308 318 325 325 319 312 311 313 315 320 325 317 319 314 312 317 320 324 326 322 317 313 319 324 323 321 319 320 319 323 319 320 316 316 316 318
285 275 1 335 3 22 29 67 334 10 353 14 39 35 62 34 35 317 273 213 301 293 266 28 286 226 240 293 208 197 231 216 226 234 242 243 254 270 284 297 303 305 303 295 295 294 291 295 297 297 296 303 306 308 309 308 316 322 329 337 339 318 317 322 327 330 336 336 334 332 328 327 329 327 326 324 319 319 321 320 314 314 313 313 313 314
49 351 348 10 19 344 50 80 117 182 352 19 168 105 151 142 110 322 239 340 252 247 283 297 34 241 15 239 211 221 234 277 249 252 256 251 251 264 279 275 281 292 302 298 298 293 292 294 296 297 303 302 300 299 301 302 320 331 333 332 329 324 327 334 329 335 337 332 329 329 328 328 330 325 326 323 320 320 320 315 311 309 310 308 310 312
22 232 288 355 261 340 33 343 100 102 84 255 155 112 56 9 136 34 212 168 281 334 337 339 183 184 193 224 283 268 295 296 314 307 336 295 279 305 307 312 303 297 292 295 294 299 301 300 302 307 305 304 300 296 294 305 333 332 319 314 306 302 305 313 324 329 325 319 320 323 326 327 329 326 322 318 318 314 312 310 310 309 308 308 309 311
19 33 315 318 19 50 334 328 20 146 24 307 55 30 218 165 99 84 80 77 53 53 262 210 318 301 295 37 355 338 333 292 318 299 319 301 300 324 295 294 296 289 290 291 295 297 299 305 309 307 302 300 300 297 299 313 315 303 305 311 310 312 312 316 324 320 315 314 322 323 324 326 327 323 321 319 316 313 311 311 310 310 310 310 313 316
152 258 306 28 17 11 253 230 305 18 87 47 47 238 104 116 122 121 253 334 62 120 260 33 287 307 28 310 322 343 308 279 280 270 275 293 287 299 283 285 284 285 285 288 286 281 279 278 280 289 290 283 280 283 304 316 317 310 295 288 292 300 313 318 322 320 320 322 323 320 323 324 322 321 319 316 312 312 313 313 312 311 312 316 323 323
93 3 304 348 232 300 351 26 338 5 20 116 149 176 71 335 351 328 90 360 351 338 292 312 290 246 186 259 342 302 252 271 270 279 305 291 301 289 289 291 293 296 300 299 300 303 303 303 305 302 297 297 296 300 303 306 310 317 312 296 284 294 305 309 312 312 317 323 324 325 325 324 322 321 317 312 309 313 313 313 312 312 314 321 321 315
28 141 298 304 242 317 347 56 261 298 345 27 34 45 330 98 138 5 58 206 125 270 24 294 23 273 205 225 196 245 241 248 272 303 261 258 272 283 285 289 294 297 296 293 294 294 292 296 299 298 298 300 307 316 315 309 315 313 298 297 305 316 324 326 329 332 329 329 325 322 322 320 319 317 315 313 313 313 312 310 313 319 321 318 314 309
262 101 294 278 316 346 291 10 146 147 14 332 31 352 356 42 213 123 33 104 196 188 181 244 332 282 262 212 184 230 233 244 229 246 256 270 284 291 289 288 291 292 291 290 288 290 294 298 302 302 300 300 307 301 290 291 296 285 294 314 328 326 324 328 330 334 330 330 326 326 324 322 322 318 314 312 312 311 311 315 318 319 316 313 309 311
72 23 255 310 3 22 221 18 306 333 184 182 138 125 168 82 22 37 281 23 67 55 236 113 270 278 278 178 210 228 239 255 247 224 261 281 290 295 295 294 293 294 292 288 288 289 295 300 300 299 298 301 310 311 327 325 321 320 321 314 314 323 328 331 333 334 328 327 323 322 321 320 316 312 313 313 316 316 317 318 318 317 316 310 307 313
126 155 85 293 196 319 253 304 283 256 96 145 52 186 128 103 105 98 289 287 16 42 107 154 242 274 243 215 218 237 252 245 249 207 265 281 288 291 290 289 290 283 276 281 283 288 289 288 285 283 285 289 298 304 310 308 306 301 305 315 323 329 326 332 326 328 328 325 323 320 318 314 314 314 315 318 320 320 319 318 317 317 312 312 315 316
90 67 15 275 316 307 328 314 327 27 32 0 12 55 91 138 166 167 174 173 149 311 18 356 233 251 281 211 229 239 240 260 260 226 250 280 287 289 290 293 292 296 298 297 294 290 286 284 279 283 298 317 319 312 304 291 294 299 305 317 326 331 330 332 332 327 326 322 318 317 315 315 314 316 320 323 322 320 321 318 315 315 314 320 317 315
24 302 111 336 0 336 341 346 3 336 73 160 206 198 91 81 73 133 108 40 306 218 175 123 246 277 273 294 269 244 299 299 290 288 257 280 287 287 292 292 290 293 299 304 306 304 304 308 317 313 312 307 301 298 289 292 296 307 316 327 335 333 332 328 328 328 324 320 318 318 318 317 319 321 324 322 321 322 321 317 315 319 320 315 312 313
98 213 79 68 34 357 331 327 305 313 255 238 160 108 206 127 135 115 240 16 172 276 130 185 254 253 260 280 288 288 288 284 281 274 275 252 268 287 294 299 307 315 310 309 307 313 312 310 304 302 305 304 295 281 286 297 310 318 322 330 339 334 331 328 327 326 323 321 320 319 319 319 323 326 325 322 322 321 317 318 319 318 314 315 314 314
141 50 153 150 150 195 212 222 252 55 21 262 243 173 207 138 106 98 103 106 210 204 196 239 213 295 297 293 302 308 318 313 311 316 314 314 307 304 304 310 314 310 304 300 297 292 296 303 301 298 298 292 281 285 299 311 319 320 326 332 336 332 329 328 330 327 322 319 317 317 319 324 328 327 323 321 319 319 318 317 318 316 316 316 313 314
66 335 273 168 228 235 245 255 224 153 246 255 241 243 195 165 167 142 157 218 170 78 290 244 236 221 270 290 288 294 295 298 302 304 307 306 303 301 300 300 298 300 298 301 304 303 300 295 295 297 303 310 306 317 321 320 319 325 333 331 330 331 331 329 328 322 318 317 318 318 322 330 328 322 318 317 319 317 316 316 315 316 315 315 315 315
137 162 264 117 271 266 264 264 254 252 225 245 229 215 199 195 164 191 226 192 145 185 238 247 150 233 274 283 288 289 283 285 289 288 286 285 286 289 295 298 297 296 297 304 301 300 300 302 301 304 310 306 319 324 320 320 324 331 332 331 330 331 329 330 325 320 318 319 321 323 331 331 324 317 318 319 320 320 317 317 317 317 316 316 316 315
94 271 214 145 276 285 286 305 308 225 276 282 243 233 224 188 204 210 229 197 191 234 253 278 285 278 275 276 278 279 288 286 284 290 296 294 289 292 297 294 294 296 303 305 302 300 299 301 304 307 310 312 321 319 318 319 326 334 332 328 330 326 326 331 322 318 320 321 322 330 332 324 318 319 321 323 324 322 321 319 318 316 315 315 314 313
98 279 73 180 348 293 299 312 323 86 182 271 252 229 221 217 223 224 241 232 221 270 265 268 278 279 273 264 273 277 281 289 293 287 282 281 285 290 291 296 302 305 304 301 302 304 307 309 309 315 318 316 319 318 319 319 326 332 328 329 327 325 326 326 319 318 321 320 328 335 327 323 322 324 324 323 322 323 322 320 318 318 317 316 316 315
38 257 57 69 5 305 312 351 294 289 246 245 283 262 212 179 216 213 213 209 168 229 252 324 273 261 269 276 260 281 285 287 288 290 293 288 289 301 307 307 303 300 298 299 300 307 312 316 318 316 312 317 318 323 329 331 334 334 332 329 326 325 324 322 320 320 322 326 330 328 330 327 324 323 322 324 324 323 321 321 320 317 316 317 316 316
129 117 30 23 353 261 264 291 305 321 321 358 309 237 182 199 194 239 256 230 216 164 186 223 243 240 276 107 338 298 301 297 296 293 300 306 308 310 301 293 290 288 291 296 301 305 307 310 305 294 306 317 321 326 333 342 336 334 330 325 321 320 322 324 323 322 326 331 332 331 331 330 326 323 323 325 324 323 323 319 318 318 320 319 317 314
77 92 108 196 156 255 306 319 317 4 17 242 227 159 149 176 194 212 230 214 215 180 218 209 253 298 306 296 291 289 297 289 287 293 295 278 288 289 283 282 280 282 287 291 297 297 304 308 293 296 291 298 309 321 334 348 338 328 324 319 320 323 328 329 323 325 330 336 333 332 332 330 326 324 324 324 324 322 319 321 318 317 315 312 314 314
108 74 116 136 118 283 320 335 24 0 246 234 229 181 198 92 174 208 248 236 222 216 243 272 273 273 270 274 268 270 270 284 297 289 297 285 260 259 270 280 284 285 288 298 307 312 320 302 298 312 333 337 340 343 349 346 345 331 328 329 325 330 329 323 323 334 337 334 333 331 333 331 326 322 323 323 321 320 318 314 314 315 315 315 315 313
144 115 169 65 147 340 38 27 21 251 250 263 263 214 221 134 157 189 291 259 233 215 215 236 252 262 277 281 281 269 287 288 296 284 235 257 246 254 272 276 282 288 298 301 300 304 298 300 309 318 319 340 347 349 2 346 340 336 329 326 326 328 327 328 330 334 340 334 335 333 331 330 325 322 322 322 320 319 317 317 314 314 315 314 309 306
132 109 116 219 141 189 181 153 238 313 331 358 14 261 172 176 172 156 265 287 222 198 184 222 251 265 269 270 267 295 320 318 317 302 293 260 280 268 242 267 275 290 288 294 286 273 242 199 321 335 338 348 353 360 358 345 342 333 321 324 332 331 324 327 334 337 335 331 329 330 330 329 326 321 320 322 319 318 316 315 314 311 313 311 310 310
44 99 229 109 322 120 110 320 328 8 345 277 237 287 269 189 132 166 84 292 284 220 186 199 234 256 269 278 288 314 15 348 307 290 295 296 291 292 298 279 287 279 281 289 115 131 132 63 20 4 12 348 360 19 353 350 345 332 327 328 328 326 328 333 334 334 329 327 327 327 327 326 324 320 319 319 318 316 313 311 307 307 309 309 311 309
27 68 110 129 146 47 58 130 243 233 256 205 236 228 277 130 142 140 50 285 281 205 196 195 224 248 253 265 280 24 7 323 286 288 290 269 291 283 293 299 302 290 286 243 177 154 169 63 35 356 4 3 8 7 359 0 348 338 328 326 327 325 325 334 332 330 329 327 328 327 325 322 321 319 316 315 314 313 311 310 309 303 304 302 301 303
35 357 33 41 68 175 129 119 258 212 248 275 231 247 216 139 166 57 346 291 259 234 215 187 219 241 256 260 245 275 255 282 294 297 301 310 309 294 269 286 299 306 329 142 98 86 59 32 18 10 11 12 16 359 5 1 346 334 325 323 324 325 332 331 328 324 324 324 324 323 321 320 318 316 316 313 310 310 308 306 303 305 306 304 304 304
358 0 40 198 159 187 185 271 318 287 269 234 208 204 142 173 75 73 263 250 245 232 207 181 225 238 236 263 196 266 222 222 264 287 317 315 324 312 322 229 248 267 203 154 108 81 55 45 45 26 24 34 16 3 7 353 340 332 329 323 323 331 330 325 324 325 325 324 321 320 319 319 318 316 314 309 306 307 303 301 303 307 308 308 307 303
280 121 191 91 131 171 180 172 233 256 246 178 302 144 167 104 309 213 235 203 155 231 221 192 226 244 227 239 239 234 261 265 278 296 296 297 290 285 295 280 165 86 74 95 86 62 43 47 37 27 50 48 21 13 9 353 344 331 328 328 327 332 326 323 327 327 325 322 319 317 317 317 318 314 309 308 309 310 306 306 305 301 304 306 306 306
189 145 201 181 178 76 65 36 345 330 287 122 131 78 169 141 230 203 248 261 193 251 252 233 206 252 208 261 245 255 268 281 281 281 284 289 290 291 303 287 229 196 173 149 91 53 34 26 16 25 36 31 22 20 8 354 341 335 330 319 327 328 324 328 330 328 322 320 317 316 315 315 316 315 314 311 310 308 309 311 311 311 309 308 311 312
192 191 252 247 183 139 166 179 210 207 186 181 154 189 204 214 191 165 253 301 243 204 247 264 252 232 229 240 268 278 275 277 287 277 286 288 285 295 249 241 222 119 101 82 93 77 56 37 32 30 40 29 29 24 17 358 345 337 328 320 331 327 328 331 330 325 319 317 316 314 315 316 315 311 308 307 310 310 309 312 313 314 312 313 312 312
196 193 178 164 207 163 200 218 239 228 195 198 204 230 228 222 253 259 272 256 279 280 202 258 273 275 243 252 266 257 280 271 263 272 274 282 293 305 300 245 191 168 148 138 105 70 63 38 3 24 25 18 32 28 19 5 345 329 322 326 334 330 331 329 325 322 318 318 318 317 315 314 312 313 310 310 312 315 317 316 320 320 321 320 317 315
289 196 208 92 241 266 270 244 260 257 223 233 247 255 272 270 238 214 237 268 257 254 246 252 268 270 279 247 255 270 245 266 284 288 283 285 289 288 186 116 103 103 112 111 83 40 89 52 51 46 18 356 43 33 17 4 347 330 321 329 329 330 328 323 321 322 321 319 318 318 320 320 319 315 315 312 309 304 303 307 312 314 314 316 314 315
237 164 154 220 263 33 282 323 198 243 260 235 233 248 252 252 259 249 256 244 261 270 271 253 246 255 254 254 235 255 269 272 278 278 278 284 289 263 202 188 177 168 166 147 131 88 47 30 26 20 11 345 11 29 5 357 339 324 321 319 324 328 323 317 318 316 319 321 320 320 322 325 326 329 331 327 322 311 307 309 310 312 311 312 315 319
310 185 170 231 216 195 248 269 263 248 228 231 225 258 266 259 247 240 231 246 252 263 256 261 266 266 229 245 239 246 262 264 260 273 281 279 272 230 188 182 169 149 126 122 126 108 114 69 53 10 2 343 358 15 358 344 327 321 315 313 321 320 317 316 323 325 323 319 319 320 324 325 325 327 330 331 330 331 329 324 318 314 315 317 316 311
176 118 234 173 204 261 289 278 271 286 284 270 249 238 239 252 264 272 238 232 249 261 267 264 209 237 227 244 242 242 264 268 245 252 263 275 253 202 194 182 177 165 154 158 129 98 78 84 49 27 6 333 352 1 347 330 317 315 314 321 322 322 323 325 329 325 318 317 321 324 325 321 323 325 327 327 326 320 312 314 320 318 308 295 290 315
100 229 181 70 278 260 239 255 110 301 288 299 267 217 232 238 236 249 277 273 249 250 258 270 269 217 227 239 240 234 242 265 266 238 250 247 237 203 171 163 154 137 145 132 124 109 94 91 99 29 359 332 353 354 340 324 316 312 315 317 320 327 331 334 333 330 328 328 328 326 329 332 331 331 330 331 331 329 323 317 322 319 317 314 325 328
202 218 150 200 190 251 247 245 211 225 265 259 269 278 237 211 185 218 239 253 262 251 251 261 286 290 240 236 230 228 242 246 262 246 243 245 224 182 173 161 159 165 159 154 140 126 81 105 66 87 350 322 349 353 337 319 314 311 316 318 325 329 331 336 332 326 324 330 333 328 328 327 329 332 330 330 331 332 330 327 330 328 323 330 328 325